This is the latest recevied weather packets stored in our database for station/object WP3OF. If no packets are shown the sender has not sent any weather packets the latest 1 day(s).
| Time | Temp. | Humidity | Pressure | Rain* | Wind** | Luminosity | Snow |
|---|---|---|---|---|---|---|---|
| 1836274784 | 24.44° C | 87% | 1017.3 hPa | 0 mm | 0.89 m/s, 261° | - | - |
| 1836274482 | 24.44° C | 87% | 1017.3 hPa | 0 mm | 1.34 m/s, 267° | - | - |
| 1836274336 | 24.44° C | 87% | 1017.4 hPa | 0 mm | 0.89 m/s, 192° | - | - |
| 1836274180 | 24.44° C | 88% | 1017.5 hPa | 0 mm | 1.34 m/s, 250° | - | - |
| 1836273875 | 24.44° C | 87% | 1017.5 hPa | 0 mm | 1.34 m/s, 208° | - | - |
| 1778023147 | - | - | - | 0 mm | 0.89 m/s, 268° | - | - |
| 1778022844 | - | - | - | 0 mm | 1.79 m/s, 262° | - | - |
| 1778022542 | - | - | - | 0 mm | 2.68 m/s, 258° | - | - |
| 1778022240 | - | - | - | 0 mm | 3.13 m/s, 270° | - | - |
| 1778021936 | - | - | - | 0 mm | 1.79 m/s, 260° | - | - |
| 1778021634 | - | - | - | 0 mm | 2.68 m/s, 268° | - | - |
| 1778021328 | - | - | - | 0 mm | 1.79 m/s, 270° | - | - |
| 1778021026 | - | - | - | 0 mm | 2.68 m/s, 274° | - | - |
| 1778020723 | - | - | - | 0 mm | 1.79 m/s, 287° | - | - |
| 1778020420 | - | - | - | 0 mm | 4.02 m/s, 303° | - | - |
| 1778020116 | - | - | - | 0 mm | 3.13 m/s, 286° | - | - |
| 1778019812 | - | - | - | 0 mm | 3.58 m/s, 291° | - | - |
| 1778019510 | - | - | - | 0 mm | 2.68 m/s, 277° | - | - |
| 1778019206 | - | - | - | 0 mm | 3.13 m/s, 304° | - | - |
| 1778018903 | - | - | - | 0 mm | 4.02 m/s, 286° | - | - |
| 1778018600 | - | - | - | 0 mm | 3.13 m/s, 304° | - | - |
| 1778018298 | - | - | - | 0 mm | 2.24 m/s, 280° | - | - |
| 1778017996 | - | - | - | 0 mm | 3.13 m/s, 311° | - | - |
| 1778017694 | - | - | - | 0 mm | 3.58 m/s, 309° | - | - |
| 1778017391 | - | - | - | 0 mm | 3.58 m/s, 295° | - | - |
* Rain latest hour (hover to see other rain measurements)
** Current wind speed in m/s (hover to see current wind gust speed)